SCP
-0 -0 -0 -0 -0 0 -0 -0 -0 -0 0 -0 -0 -0 -0 0 -0 0 0 -0 -0 -0 0 -0 -0 0 0 0 0 0 -0 -0 -0 -0 0 0 0 -0 -0 0 0 0 0
-0 -0 -0 0 -0 -0 -0 -0 -0 -0 -0 -0 -0 -0 -0 0 -0 -0 0 0 -0 -0 -0 -0 -0 -0 -0 0 0 0 0 -0 -0 -0 0 0 0 0 0 0 0 0 0
-0 -0 -0 -0 -0 -0 -0 -0 -0 -0 -0 0 -0 -0 -0 -0 0 0 0 0 0 0 0 -0 -0 0 0 0 0 0 0 0 0 -0 0 0 0 0 0 0 0 0 0
0 0 0 0 0 0 0 -0 -0 -0 -0 -0 0 -0 0 0 0 0 0 0 0 0 -0 -0 -0 -0 -0 -0 0 0 0 0 0 0 0 0 0 0 0 0 0 0 0
0 0 0 0 0 0 0 0 -0 -0 0 -0 0 -0 0 0 0 0 -0 -0 0 0 0 0 -0 -0 -0 -0 -0 0 0 0 0 0 0 0 0 0 0 0 0 -0 0
0 0 0 0 0 0 0 0 -0 -0 -0 -0 -0 0 0 0 -0 -0 -0 -0 -0 0 0 0 0 0 -0 -0 -0 -0 -0 0 0 0 0 0 0 0 0 0 0 0 0
0 0 0 0 0 0 0 -0 -0 0 -0 0 0 0 0 0 -0 -0 -0 0 0 0 0 0 0 0 0 -0 -0 -0 -0 0 -0 0 0 0 0 -0 -0 0 0 0 0
0 0 0 0 0 0 0 0 0 0 -0 -0 0 -0 -0 -0 -0 0 0 0 0 0 0 0 0 0 0 0 -0 -0 -0 -0 -0 -0 0 0 -0 -0 0 0 0 0 0
0 0 0 0 0 0 0 0 0 0 -0 -0 0 -0 -0 0 0 0 0 0 0 0 0 0 0 0 0 0 0 -0 -0 0 0 0 0 0 -0 -0 0 0 0 0 0
0 0 0 0 0 0 0 0 0 -0 0 0 0 0 0 0 0 0 0 0 0 0 0 0 0 0 0 0 0 0 -0 -0 -0 -0 -0 0 0 0 -0 -0 0 0 0
0 0 0 0 0 0 0 0 0 0 0 0 0 0 0 0 0 0 0 0 0 0 0 0 0 0 0 0 0 0 0 0 -0 -0 -0 0 0 0 -0 -0 0 0 0
0 0 0 0 0 0 0 0 0 0 0 0 0 0 0 0 0 0 0 0 0 0 0 0 0 0 0 0 0 0 0 0 0 0 -0 -0 -0 0 0 0 -0 0 0
-0 0 0 0 0 0 0 0 0 0 0 0 0 0 0 0 0 0 0 0 0 0 0 0 0 0 0 0 0 0 0 0 0 0 0 0 0 0 -0 0 0 0 0
-0 0 0 0 0 0 0 0 0 0 0 0 0 0 0 0 0 0 0 0 0 0 0 0 0 0 0 0 0 0 0 0 0 0 0 0 0 0 0 0 0 0 0
0 0 0 0 0 0 0 0 0 0 0 0 0 0 0 0 0 0 0 0 0 0 0 0 0 0 0 0 0 0 0 0 0 0 0 0 0 0 0 0 0 0 0
-0 0 0 0 0 0 0 0 0 0 0 0 0 0 0 0 0 0 0 0 0 0 0 0 0 0 0 0 0 0 0 0 0 0 0 0 0 0 0 0 0 0 0
-0 -0 0 0 0 0 0 0 0 0 0 0 0 0 0 0 0 0 0 0 0 0 0 0 0 0 0 0 0 0 0 0 0 0 0 0 0 0 0 0 0 0 0
-0 -0 0 0 0 0 0 0 0 0 0 0 0 0 0 0 0 0 0 0 0 0 0 0 0 0 0 0 0 0 0 0 0 0 0 0 0 0 0 0 0 0 0
-0 0 0 0 0 0 0 0 0 0 0 0 0 0 0 0 0 0 0 0 0 0 0 0 0 0 0 0 0 0 0 0 0 0 0 0 0 0 0 0 0 0 0
0 0 0 0 0 0 0 0 0 0 0 0 0 0 0 0 0 0 0 0 0 0 0 0 0 0 0 0 0 0 0 0 0 0 0 0 0 0 0 0 0 0 0
0 0 0 0 0 0 0 0 0 0 0 0 0 0 0 0 0 0 0 0 0 0 0 0 0 0 0 0 0 0 0 0 0 0 0 0 0 0 0 0 0 0 0
0 0 0 0 0 0 0 0 0 0 0 0 0 0 0 0 0 0 0 0 0 0 0 0 0 0 0 0 0 0 0 0 0 0 0 0 0 0 0 0 0 0 0
0 0 0 0 0 0 0 0 0 0 0 0 0 0 0 0 0 0 0 0 0 0 0 0 0 0 0 0 0 0 0 0 0 0 0 0 0 0 0 0 0 0 0
0 0 0 0 0 0 0 0 0 0 0 0 0 0 0 0 0 0 0 0 0 0 0 0 0 0 0 0 0 0 0 0 0 0 0 0 0 0 0 0 0 0 0
0 0 0 0 0 0 0 0 0 0 0 0 0 0 0 0 0 0 0 0 0 0 0 0 0 0 0 0 0 0 0 0 0 0 0 0 0 0 0 0 0 0 0
0 0 0 0 0 0 0 0 0 0 0 0 0 0 0 0 0 0 0 0 0 0 0 0 0 0 0 0 0 0 0 0 0 0 0 0 0 0 0 0 0 0 0
Wind_Speed_500mb
10 13 15 19 19 19 20 22 23 26 28 28 29 30 28 29 30 30 34 31 33 37 41 42 49 51 51 43 34 31 33 32 33 36 37 38 36 33 28 28 23 22 23
16 19 20 22 24 27 28 29 33 36 38 36 35 37 35 32 31 33 36 39 40 41 47 50 49 54 58 58 46 40 37 38 35 36 39 38 36 34 34 33 31 27 25
20 25 31 29 27 33 38 35 30 30 33 34 38 40 38 39 36 34 34 35 38 39 48 55 58 56 63 63 61 52 45 41 43 38 40 39 37 38 38 37 36 32 29
24 23 26 25 26 30 28 36 37 34 35 32 31 33 37 36 39 34 36 34 30 33 40 37 44 58 51 55 67 65 55 52 49 45 43 43 41 40 40 38 36 34 32
27 32 35 37 34 33 31 32 31 36 31 32 28 25 26 29 29 32 37 34 31 29 32 30 35 42 49 55 59 63 67 60 55 51 49 47 45 43 44 40 37 38 36
28 36 33 29 37 36 39 33 29 29 32 27 20 16 13 19 24 28 29 27 27 30 30 32 32 33 38 40 58 63 74 70 71 62 58 54 50 47 45 46 44 41 40
26 31 33 31 28 27 28 31 22 22 21 17 12 12 15 17 10 9 12 13 15 15 20 21 22 20 21 21 23 52 80 69 72 69 70 67 60 54 51 48 47 45 42
26 24 29 32 14 10 8 20 16 12 14 15 12 13 6 7 2 20 9 9 10 13 16 18 15 18 17 16 23 32 64 71 56 69 75 76 69 63 58 54 50 50 49
19 20 19 16 14 6 15 11 10 12 14 11 9 8 7 6 16 3 15 7 17 11 15 16 16 19 18 17 16 22 28 32 51 59 71 79 80 71 64 62 58 55 54
20 19 9 9 10 8 4 4 9 11 13 12 14 12 14 16 9 6 9 17 15 16 14 16 15 18 19 16 18 20 25 29 41 58 63 66 81 84 76 70 66 64 59
21 16 6 4 2 2 4 9 11 12 12 12 12 13 11 10 8 8 13 15 19 16 12 15 13 15 16 17 19 21 26 28 37 46 58 65 67 84 86 77 71 66 66
17 10 6 6 5 4 4 4 4 6 6 6 7 7 5 4 7 11 14 16 19 12 8 8 9 10 13 17 20 19 18 25 26 40 45 58 66 75 83 77 72 68 65
17 10 6 5 0 4 5 6 5 3 2 3 4 6 8 9 8 11 12 15 11 13 7 8 14 16 17 17 20 20 20 20 25 29 40 48 50 31 81 76 71 72 65
19 12 7 5 6 7 7 7 6 5 6 5 6 7 9 10 8 10 7 8 9 8 7 14 18 16 22 20 21 22 20 19 20 19 27 33 40 50 60 71 77 76 68
20 15 10 8 8 7 4 4 3 3 6 8 10 12 13 13 13 10 11 10 8 9 9 9 11 18 21 22 22 20 21 19 18 18 22 20 31 51 57 65 78 73 67
21 17 12 12 9 6 3 1 3 5 9 11 11 11 12 11 8 7 8 9 8 7 6 11 12 16 18 20 22 20 20 16 14 11 10 22 26 22 28 39 53 73 73
23 20 17 13 9 5 3 1 4 8 10 11 12 14 10 8 6 6 4 5 6 4 4 7 11 15 16 18 19 20 16 13 15 10 6 8 25 33 31 33 45 49 46
29 26 22 16 8 6 5 7 7 7 9 12 14 10 7 7 8 10 10 9 9 7 5 7 12 15 19 20 21 20 23 21 16 16 12 11 12 13 11 17 26 35 42
32 27 24 16 10 7 7 8 7 6 8 14 12 8 7 10 11 13 16 17 18 20 20 16 17 22 21 20 18 17 18 20 19 21 22 19 11 12 21 20 19 20 27
36 31 28 19 12 9 12 10 10 10 8 11 6 5 6 8 10 12 15 16 19 19 21 20 21 23 27 28 24 22 17 17 17 15 22 25 23 25 23 24 29 29 29
41 35 30 24 17 14 14 14 13 13 11 7 2 2 3 5 8 9 11 15 21 20 20 22 22 24 21 22 22 23 22 23 22 17 15 18 23 26 33 32 24 25 31
45 42 35 25 19 16 14 16 17 15 11 7 4 5 5 9 12 16 18 19 21 25 28 29 24 26 22 23 22 25 23 21 19 17 25 24 22 19 18 20 30 29 27
46 40 31 21 17 15 14 15 13 11 9 10 8 7 10 13 20 24 26 27 27 29 30 34 35 25 26 25 27 27 23 21 21 20 25 19 16 17 18 19 28 29 28
46 37 30 21 18 15 11 11 10 12 11 10 8 10 10 18 22 24 25 28 26 25 24 30 33 32 29 26 27 24 27 27 25 21 21 19 19 20 20 21 30 29 29
41 36 24 18 17 13 12 10 9 9 8 7 9 12 21 24 19 16 15 15 15 16 24 31 36 38 35 30 31 33 25 27 30 26 26 20 20 22 23 23 21 31 33
37 29 23 23 17 14 16 13 12 9 5 4 12 19 20 17 12 8 9 16 24 28 36 42 44 42 41 34 33 36 33 31 32 34 25 23 27 27 27 24 14 15 18
Wind_Direction_500mb
260 266 271 266 269 261 259 261 265 263 269 276 276 268 271 269 266 271 262 256 259 254 251 259 252 248 238 246 245 230 229 222 219 213 212 211 214 203 205 206 193 199 204
270 281 285 285 280 276 267 265 266 266 269 271 270 273 279 276 274 273 266 269 271 268 254 258 261 246 244 243 237 234 228 230 225 218 215 214 212 213 214 217 214 208 211
279 285 286 279 275 271 268 267 268 265 269 274 275 271 271 276 273 273 274 277 269 260 257 257 260 247 245 240 235 233 223 221 229 224 219 216 218 219 220 216 219 214 209
282 279 284 286 268 277 268 265 264 267 274 286 292 269 266 269 275 277 279 281 279 273 277 277 281 269 266 246 230 228 225 220 224 226 223 220 221 221 217 216 216 214 210
291 285 273 275 273 266 263 270 265 267 276 288 291 283 275 276 277 279 284 284 276 269 272 278 281 272 274 249 235 230 221 222 221 223 225 224 221 220 218 215 216 214 216
307 307 305 289 276 276 253 265 273 263 280 292 286 295 299 284 283 287 292 292 289 286 282 282 284 281 278 276 254 228 221 223 219 222 221 223 223 223 222 222 219 220 219
305 304 309 305 294 279 251 242 252 279 289 289 289 307 290 291 315 324 299 289 288 293 298 300 300 298 292 272 252 232 227 220 217 221 224 225 224 223 224 224 224 221 224
306 305 322 329 322 284 234 186 259 277 282 281 280 307 284 302 137 329 320 316 327 325 313 315 306 311 310 291 257 258 240 218 218 224 226 226 225 227 225 227 227 225 224
311 316 341 4 50 130 166 210 252 274 287 276 277 278 296 300 321 292 333 353 328 323 321 317 315 318 315 303 283 262 262 259 236 234 230 228 226 227 229 228 229 229 227
300 323 344 33 73 112 157 246 272 278 284 285 285 279 272 268 288 298 315 323 339 336 323 312 309 310 313 314 298 280 266 256 242 239 236 234 225 228 228 230 230 231 230
301 315 317 342 358 313 286 289 280 286 291 291 293 295 289 286 284 290 313 323 331 336 326 306 312 309 313 316 311 303 272 263 255 242 241 240 233 227 224 230 229 231 232
286 297 290 301 296 269 257 276 303 306 300 298 305 312 308 301 314 313 300 308 323 332 354 345 327 334 326 332 332 328 290 275 270 248 247 241 247 237 220 221 228 232 232
275 270 273 314 243 115 105 95 86 74 63 7 348 329 327 313 287 274 289 306 312 327 336 354 348 345 341 340 342 338 325 294 275 267 249 247 247 249 211 219 226 228 233
254 237 243 199 151 127 113 100 86 66 45 16 3 3 350 352 325 313 287 297 305 300 322 326 332 333 337 338 336 338 333 329 290 288 261 253 243 234 225 230 230 226 230
233 219 217 183 158 156 128 90 67 15 11 345 334 330 322 316 313 313 312 315 310 301 297 287 306 319 331 327 330 338 342 347 343 265 270 263 250 243 238 234 231 228 226
221 211 195 178 175 177 166 32 359 342 341 337 334 328 329 328 328 324 312 305 295 280 273 291 326 321 312 324 321 321 326 354 343 338 268 246 251 246 243 240 235 236 231
212 206 195 191 189 195 214 293 337 348 4 14 5 351 346 348 3 355 342 335 325 327 306 308 328 326 320 311 317 322 329 318 325 334 325 306 259 246 250 253 248 249 230
208 204 199 199 201 234 279 310 321 344 5 2 357 2 26 45 41 37 32 29 21 6 35 359 331 332 329 328 329 329 326 324 330 301 268 268 279 284 276 250 261 252 251
207 207 204 203 208 239 282 292 292 306 335 347 356 30 54 71 52 56 53 46 40 30 20 14 5 351 340 329 318 308 301 310 324 306 299 296 280 274 281 269 255 258 261
206 207 203 202 218 256 278 281 291 286 299 323 349 30 83 75 74 60 45 30 18 11 1 7 355 349 342 334 333 325 326 314 296 294 295 297 290 281 282 278 266 259 268
203 207 206 204 216 242 260 275 283 277 278 296 336 68 67 30 8 5 4 354 355 1 359 352 348 346 342 344 339 335 328 321 319 299 298 298 303 297 293 290 278 270 265
204 201 200 204 220 236 258 267 262 254 255 220 233 270 305 315 312 305 307 316 327 334 341 342 342 337 342 344 342 344 337 337 331 316 310 301 296 287 280 284 278 274 262
200 198 199 211 228 239 265 267 253 240 236 230 254 289 284 284 293 290 289 294 306 318 324 329 336 333 331 334 339 344 336 333 324 316 321 315 306 302 289 279 274 274 267
199 199 201 208 220 250 248 236 225 239 231 236 253 281 297 309 306 296 291 289 296 304 310 313 318 323 317 314 314 315 321 323 322 322 319 317 310 308 296 284 278 272 273
201 194 202 211 230 232 221 203 196 200 212 223 270 290 306 312 312 316 315 306 300 299 299 307 310 309 302 296 297 300 294 300 306 309 298 295 310 302 301 293 278 274 261
200 202 201 205 218 214 196 187 177 173 191 264 300 310 320 328 331 343 333 320 317 320 315 317 319 325 321 310 290 289 296 285 287 296 306 276 296 291 295 291 273 278 280
Wind_Speed_850mb
10 13 15 19 19 19 20 22 23 26 28 28 29 30 28 29 30 30 34 31 33 37 41 42 49 51 51 43 34 31 33 32 33 36 37 38 36 33 28 28 23 22 23
16 19 20 22 24 27 28 29 33 36 38 36 35 37 35 32 31 33 36 39 40 41 47 50 49 54 58 58 46 40 37 38 35 36 39 38 36 34 34 33 31 27 25
20 25 31 29 27 33 38 35 30 30 33 34 38 40 38 39 36 34 34 35 38 39 48 55 58 56 63 63 61 52 45 41 43 38 40 39 37 38 38 37 36 32 29
24 23 26 25 26 30 28 36 37 34 35 32 31 33 37 36 39 34 36 34 30 33 40 37 44 58 51 55 67 65 55 52 49 45 43 43 41 40 40 38 36 34 32
27 32 35 37 34 33 31 32 31 36 31 32 28 25 26 29 29 32 37 34 31 29 32 30 35 42 49 55 59 63 67 60 55 51 49 47 45 43 44 40 37 38 36
28 36 33 29 37 36 39 33 29 29 32 27 20 16 13 19 24 28 29 27 27 30 30 32 32 33 38 40 58 63 74 70 71 62 58 54 50 47 45 46 44 41 40
26 31 33 31 28 27 28 31 22 22 21 17 12 12 15 17 10 9 12 13 15 15 20 21 22 20 21 21 23 52 80 69 72 69 70 67 60 54 51 48 47 45 42
26 24 29 32 14 10 8 20 16 12 14 15 12 13 6 7 2 20 9 9 10 13 16 18 15 18 17 16 23 32 64 71 56 69 75 76 69 63 58 54 50 50 49
19 20 19 16 14 6 15 11 10 12 14 11 9 8 7 6 16 3 15 7 17 11 15 16 16 19 18 17 16 22 28 32 51 59 71 79 80 71 64 62 58 55 54
20 19 9 9 10 8 4 4 9 11 13 12 14 12 14 16 9 6 9 17 15 16 14 16 15 18 19 16 18 20 25 29 41 58 63 66 81 84 76 70 66 64 59
21 16 6 4 2 2 4 9 11 12 12 12 12 13 11 10 8 8 13 15 19 16 12 15 13 15 16 17 19 21 26 28 37 46 58 65 67 84 86 77 71 66 66
17 10 6 6 5 4 4 4 4 6 6 6 7 7 5 4 7 11 14 16 19 12 8 8 9 10 13 17 20 19 18 25 26 40 45 58 66 75 83 77 72 68 65
17 10 6 5 0 4 5 6 5 3 2 3 4 6 8 9 8 11 12 15 11 13 7 8 14 16 17 17 20 20 20 20 25 29 40 48 50 31 81 76 71 72 65
19 12 7 5 6 7 7 7 6 5 6 5 6 7 9 10 8 10 7 8 9 8 7 14 18 16 22 20 21 22 20 19 20 19 27 33 40 50 60 71 77 76 68
20 15 10 8 8 7 4 4 3 3 6 8 10 12 13 13 13 10 11 10 8 9 9 9 11 18 21 22 22 20 21 19 18 18 22 20 31 51 57 65 78 73 67
21 17 12 12 9 6 3 1 3 5 9 11 11 11 12 11 8 7 8 9 8 7 6 11 12 16 18 20 22 20 20 16 14 11 10 22 26 22 28 39 53 73 73
23 20 17 13 9 5 3 1 4 8 10 11 12 14 10 8 6 6 4 5 6 4 4 7 11 15 16 18 19 20 16 13 15 10 6 8 25 33 31 33 45 49 46
29 26 22 16 8 6 5 7 7 7 9 12 14 10 7 7 8 10 10 9 9 7 5 7 12 15 19 20 21 20 23 21 16 16 12 11 12 13 11 17 26 35 42
32 27 24 16 10 7 7 8 7 6 8 14 12 8 7 10 11 13 16 17 18 20 20 16 17 22 21 20 18 17 18 20 19 21 22 19 11 12 21 20 19 20 27
36 31 28 19 12 9 12 10 10 10 8 11 6 5 6 8 10 12 15 16 19 19 21 20 21 23 27 28 24 22 17 17 17 15 22 25 23 25 23 24 29 29 29
41 35 30 24 17 14 14 14 13 13 11 7 2 2 3 5 8 9 11 15 21 20 20 22 22 24 21 22 22 23 22 23 22 17 15 18 23 26 33 32 24 25 31
45 42 35 25 19 16 14 16 17 15 11 7 4 5 5 9 12 16 18 19 21 25 28 29 24 26 22 23 22 25 23 21 19 17 25 24 22 19 18 20 30 29 27
46 40 31 21 17 15 14 15 13 11 9 10 8 7 10 13 20 24 26 27 27 29 30 34 35 25 26 25 27 27 23 21 21 20 25 19 16 17 18 19 28 29 28
46 37 30 21 18 15 11 11 10 12 11 10 8 10 10 18 22 24 25 28 26 25 24 30 33 32 29 26 27 24 27 27 25 21 21 19 19 20 20 21 30 29 29
41 36 24 18 17 13 12 10 9 9 8 7 9 12 21 24 19 16 15 15 15 16 24 31 36 38 35 30 31 33 25 27 30 26 26 20 20 22 23 23 21 31 33
37 29 23 23 17 14 16 13 12 9 5 4 12 19 20 17 12 8 9 16 24 28 36 42 44 42 41 34 33 36 33 31 32 34 25 23 27 27 27 24 14 15 18
Wind_Direction_850mb
260 266 271 266 269 261 259 261 265 263 269 276 276 268 271 269 266 271 262 256 259 254 251 259 252 248 238 246 245 230 229 222 219 213 212 211 214 203 205 206 193 199 204
270 281 285 285 280 276 267 265 266 266 269 271 270 273 279 276 274 273 266 269 271 268 254 258 261 246 244 243 237 234 228 230 225 218 215 214 212 213 214 217 214 208 211
279 285 286 279 275 271 268 267 268 265 269 274 275 271 271 276 273 273 274 277 269 260 257 257 260 247 245 240 235 233 223 221 229 224 219 216 218 219 220 216 219 214 209
282 279 284 286 268 277 268 265 264 267 274 286 292 269 266 269 275 277 279 281 279 273 277 277 281 269 266 246 230 228 225 220 224 226 223 220 221 221 217 216 216 214 210
291 285 273 275 273 266 263 270 265 267 276 288 291 283 275 276 277 279 284 284 276 269 272 278 281 272 274 249 235 230 221 222 221 223 225 224 221 220 218 215 216 214 216
307 307 305 289 276 276 253 265 273 263 280 292 286 295 299 284 283 287 292 292 289 286 282 282 284 281 278 276 254 228 221 223 219 222 221 223 223 223 222 222 219 220 219
305 304 309 305 294 279 251 242 252 279 289 289 289 307 290 291 315 324 299 289 288 293 298 300 300 298 292 272 252 232 227 220 217 221 224 225 224 223 224 224 224 221 224
306 305 322 329 322 284 234 186 259 277 282 281 280 307 284 302 137 329 320 316 327 325 313 315 306 311 310 291 257 258 240 218 218 224 226 226 225 227 225 227 227 225 224
311 316 341 4 50 130 166 210 252 274 287 276 277 278 296 300 321 292 333 353 328 323 321 317 315 318 315 303 283 262 262 259 236 234 230 228 226 227 229 228 229 229 227
300 323 344 33 73 112 157 246 272 278 284 285 285 279 272 268 288 298 315 323 339 336 323 312 309 310 313 314 298 280 266 256 242 239 236 234 225 228 228 230 230 231 230
301 315 317 342 358 313 286 289 280 286 291 291 293 295 289 286 284 290 313 323 331 336 326 306 312 309 313 316 311 303 272 263 255 242 241 240 233 227 224 230 229 231 232
286 297 290 301 296 269 257 276 303 306 300 298 305 312 308 301 314 313 300 308 323 332 354 345 327 334 326 332 332 328 290 275 270 248 247 241 247 237 220 221 228 232 232
275 270 273 314 243 115 105 95 86 74 63 7 348 329 327 313 287 274 289 306 312 327 336 354 348 345 341 340 342 338 325 294 275 267 249 247 247 249 211 219 226 228 233
254 237 243 199 151 127 113 100 86 66 45 16 3 3 350 352 325 313 287 297 305 300 322 326 332 333 337 338 336 338 333 329 290 288 261 253 243 234 225 230 230 226 230
233 219 217 183 158 156 128 90 67 15 11 345 334 330 322 316 313 313 312 315 310 301 297 287 306 319 331 327 330 338 342 347 343 265 270 263 250 243 238 234 231 228 226
221 211 195 178 175 177 166 32 359 342 341 337 334 328 329 328 328 324 312 305 295 280 273 291 326 321 312 324 321 321 326 354 343 338 268 246 251 246 243 240 235 236 231
212 206 195 191 189 195 214 293 337 348 4 14 5 351 346 348 3 355 342 335 325 327 306 308 328 326 320 311 317 322 329 318 325 334 325 306 259 246 250 253 248 249 230
208 204 199 199 201 234 279 310 321 344 5 2 357 2 26 45 41 37 32 29 21 6 35 359 331 332 329 328 329 329 326 324 330 301 268 268 279 284 276 250 261 252 251
207 207 204 203 208 239 282 292 292 306 335 347 356 30 54 71 52 56 53 46 40 30 20 14 5 351 340 329 318 308 301 310 324 306 299 296 280 274 281 269 255 258 261
206 207 203 202 218 256 278 281 291 286 299 323 349 30 83 75 74 60 45 30 18 11 1 7 355 349 342 334 333 325 326 314 296 294 295 297 290 281 282 278 266 259 268
203 207 206 204 216 242 260 275 283 277 278 296 336 68 67 30 8 5 4 354 355 1 359 352 348 346 342 344 339 335 328 321 319 299 298 298 303 297 293 290 278 270 265
204 201 200 204 220 236 258 267 262 254 255 220 233 270 305 315 312 305 307 316 327 334 341 342 342 337 342 344 342 344 337 337 331 316 310 301 296 287 280 284 278 274 262
200 198 199 211 228 239 265 267 253 240 236 230 254 289 284 284 293 290 289 294 306 318 324 329 336 333 331 334 339 344 336 333 324 316 321 315 306 302 289 279 274 274 267
199 199 201 208 220 250 248 236 225 239 231 236 253 281 297 309 306 296 291 289 296 304 310 313 318 323 317 314 314 315 321 323 322 322 319 317 310 308 296 284 278 272 273
201 194 202 211 230 232 221 203 196 200 212 223 270 290 306 312 312 316 315 306 300 299 299 307 310 309 302 296 297 300 294 300 306 309 298 295 310 302 301 293 278 274 261
200 202 201 205 218 214 196 187 177 173 191 264 300 310 320 328 331 343 333 320 317 320 315 317 319 325 321 310 290 289 296 285 287 296 306 276 296 291 295 291 273 278 280